Regional Weather Roundup
Issued by NWS Little Rock, AR

Home | Current Version | Previous Version | Text Only | Print | Product List | Glossary Off
Versions: 1 2 3 4 5 6 7 8 9 10 11 12 13 14 15 16 17 18 19 20 21 22 23 24 25 26 27 28 29 30 31 32 33 34 35 36 37 38 39 40 41 42 43 44 45 46 47 48 49 50

000
ASUS44 KLZK 110205
RWRLZK

WEATHER ROUNDUP FOR ARKANSAS
NATIONAL WEATHER SERVICE LITTLE ROCK AR
800 PM CST SUN DEC 10 2017

NOTE: "FAIR" INDICATES FEW OR NO CLOUDS BELOW 12,000 FEET WITH NO
SIGNIFICANT WEATHER AND/OR OBSTRUCTIONS TO VISIBILITY.

ARZ001-003-010-029-110300-
NORTHWEST ARKANSAS

CITY           SKY/WX    TMP DP  RH WIND       PRES   REMARKS
FAYETTEVILLE   CLEAR     38  25  59 SW8       30.21S
FORT SMITH     CLEAR     49  25  39 SW7       30.22S
HARRISON       CLEAR     50  23  34 W6        30.18S
BENTONVILLE    CLEAR     46  23  40 SW5       30.22R
ROGERS         PTCLDY    47  24  40 SW6       30.20S
SILOAM SPGS    CLEAR     47  22  37 SW5       30.21S
HIGHFILL       CLEAR     45  23  42 SW6       30.20S
SPRINGDALE     CLEAR     46  23  39 SW5       30.21S
$$

ARZ004-005-016-110300-
NORTH CENTRAL ARKANSAS

CITY           SKY/WX    TMP DP  RH WIND       PRES   REMARKS
BATESVILLE     CLEAR     50  26  39 W3        30.18R
FLIPPIN        CLEAR     51  24  34 CALM      30.19R
MTN HOME       CLEAR     50  27  40 VRB5      30.17
$$

ARZ040-041-110300-
WEST CENTRAL ARKANSAS

CITY           SKY/WX    TMP DP  RH WIND       PRES   REMARKS
MENA           CLEAR     45  28  53 CALM      30.23S
MOUNT IDA      CLEAR     52  26  36 CALM      30.20R
$$

ARZ009-017-025-026-028-110300-
NORTHEAST ARKANSAS

CITY           SKY/WX    TMP DP  RH WIND       PRES   REMARKS
JONESBORO      CLEAR     47  33  58 SW7       30.16R
NEWPORT        PTCLDY    47  30  51 SW8       30.17R
WALNUT RIDGE   PTCLDY    45  31  58 SW9       30.15S
BLYTHEVILLE    CLEAR     40  33  76 SW9       30.16S
$$

ARZ022-023-033-042-044-110300-
CENTRAL ARKANSAS

CITY           SKY/WX    TMP DP  RH WIND       PRES   REMARKS
LITTLE ROCK    CLEAR     48  29  47 SW7       30.21R
N LITTLE ROCK    N/A     53  29  41 CALM      30.23S
JACKSONVILLE   CLEAR     41  28  59 CALM      30.19R
SEARCY         CLEAR     44  30  57 SW3       30.19R
HOT SPRINGS    CLEAR     52  28  39 CALM      30.22R
RUSSELLVILLE   CLEAR     49  25  39 W3        30.20R
CLINTON        FAIR      37  30  75 CALM      30.20R
$$

ARZ036-110300-
EAST ARKANSAS

CITY           SKY/WX    TMP DP  RH WIND       PRES   REMARKS
WEST MEMPHIS   CLEAR     43  34  70 S8        30.18R
$$

ARZ050-053-066-070-073-110300-
SOUTHWEST ARKANSAS

CITY           SKY/WX    TMP DP  RH WIND       PRES   REMARKS
ARKADELPHIA    FAIR      38  29  70 SW3       30.24
CAMDEN         CLEAR     41  32  70 CALM      30.24S
TEXARKANA      CLEAR     50  28  42 SW8       30.25S
EL DORADO      CLEAR     44  35  70 SW5       30.26F
DE QUEEN       CLEAR     39  32  76 CALM      30.23R
$$

ARZ056-057-069-110300-
SOUTHEAST ARKANSAS

CITY           SKY/WX    TMP DP  RH WIND       PRES   REMARKS
PINE BLUFF     CLEAR     50  30  46 SW7       30.21F
STUTTGART      CLEAR     45  32  60 SW10      30.21R
MONTICELLO     CLEAR     53  29  39 SW10      30.24S

$$





USA.gov is the U.S. government's official web portal to all federal, state and local government web resources and services.